Location: *
(51.2167°N, 10.0667°E)
Time: 11:51:00
(UTC+00:00)

NOSS 3-4 (C) - Pass Details

Date: 12 December 2019
Orbit: 904 x 1309 km, 63.4° (Epoch: 19 January)

Event Time Altitude Azimuth Distance (km) Brightness Sun altitude
Rises 16:32:50 0° 248° (WSW) 3,544 8.7 -11.8°
Reaches altitude 10° 16:35:23 10° 254° (WSW) 2,628 7.3 -12.2°
Maximum altitude 16:41:16 49° 328° (NNW) 1,244 4.1 -13.0°
Enters shadow 16:46:50 14° 40° (NE) 2,552 5.2 -13.8°
